| time (UTC) | temp F | wind direction | speed MPH | gust MPH | rain 1hr in | rain 24hr in | rain mn in | humidity % | barometer mb |
| 20260510154505 | 62 | 13 | 0.0 | 2.0 | 0.01 | 0.01 | 0.01 | 68 | |
| 20260510154005 | 62 | 52 | 0.0 | 2.0 | 0.01 | 0.01 | 0.01 | 67 | |
| 20260510153505 | 62 | 344 | 0.0 | 3.0 | 0.01 | 0.01 | 0.01 | 67 | |
| 20260510153005 | 62 | 264 | 1.0 | 3.0 | 0.01 | 0.01 | 0.01 | 66 | |
| 20260510152505 | 62 | 286 | 1.0 | 3.0 | 0.01 | 0.01 | 0.01 | 65 | |
| 20260510152005 | 62 | 12 | 0.0 | 5.0 | 0.01 | 0.01 | 0.01 | 63 | |
| 20260510151505 | 62 | 258 | 1.0 | 5.0 | 0.00 | 0.00 | 0.00 | 62 | |
| 20260510151005 | 62 | 259 | 1.0 | 2.0 | 0.00 | 0.00 | 0.00 | 60 | |
| 20260510150505 | 63 | 293 | 0.0 | 7.0 | 0.00 | 0.00 | 0.00 | 58 | |
| 20260510150005 | 63 | 265 | 0.0 | 7.0 | 0.00 | 0.00 | 0.00 | 58 | |
| 20260510145505 | 64 | 270 | 2.0 | 7.0 | 0.00 | 0.00 | 0.00 | 57 | |
| 20260510145005 | 64 | 300 | 2.0 | 5.0 | 0.00 | 0.00 | 0.00 | 55 | |
| 20260510144505 | 64 | 270 | 2.0 | 8.0 | 0.00 | 0.00 | 0.00 | 54 | |
| 20260510144005 | 64 | 268 | 2.0 | 9.0 | 0.00 | 0.00 | 0.00 | 54 | |
| 20260510143505 | 64 | 285 | 4.0 | 9.0 | 0.00 | 0.00 | 0.00 | 53 | |
| 20260510143005 | 64 | 278 | 2.0 | 8.0 | 0.00 | 0.00 | 0.00 | 52 | |
| 20260510142505 | 64 | 275 | 2.0 | 8.0 | 0.00 | 0.00 | 0.00 | 52 | |
| 20260510142005 | 65 | 306 | 4.0 | 8.0 | 0.00 | 0.00 | 0.00 | 50 | |
| 20260510141505 | 65 | 327 | 2.0 | 10.0 | 0.00 | 0.00 | 0.00 | 47 | |
| 20260510141005 | 66 | 353 | 3.0 | 10.0 | 0.00 | 0.00 | 0.00 | 44 | |
| 20260510140505 | 67 | 357 | 1.0 | 5.0 | 0.00 | 0.00 | 0.00 | 43 | |
| 20260510140005 | 67 | 299 | 1.0 | 5.0 | 0.00 | 0.00 | 0.00 | 43 | |
| 20260510135505 | 67 | 287 | 1.0 | 8.0 | 0.00 | 0.00 | 0.00 | 44 | |
| 20260510135005 | 67 | 274 | 1.0 | 9.0 | 0.00 | 0.00 | 0.00 | 43 | |
| 20260510134505 | 67 | 254 | 3.0 | 13.0 | 0.00 | 0.00 | 0.00 | 42 | |
| 20260510134005 | 68 | 278 | 2.0 | 13.0 | 0.00 | 0.00 | 0.00 | 41 | |
| 20260510133505 | 68 | 280 | 2.0 | 9.0 | 0.00 | 0.00 | 0.00 | 40 | |
| 20260510133005 | 68 | 289 | 2.0 | 11.0 | 0.00 | 0.00 | 0.00 | 39 | |
| 20260510132505 | 69 | 301 | 2.0 | 11.0 | 0.00 | 0.00 | 0.00 | 38 | |
| 20260510132005 | 69 | 290 | 4.0 | 11.0 | 0.00 | 0.00 | 0.00 | 37 | |
| 20260510131505 | 70 | 299 | 3.0 | 11.0 | 0.00 | 0.00 | 0.00 | 35 | |
| 20260510131005 | 70 | 311 | 2.0 | 11.0 | 0.00 | 0.00 | 0.00 | 35 | |
| 20260510130505 | 71 | 301 | 4.0 | 9.0 | 0.00 | 0.00 | 0.00 | 33 | |
| 20260510130005 | 71 | 283 | 4.0 | 9.0 | 0.00 | 0.00 | 0.00 | 33 | |
| 20260510125505 | 71 | 261 | 1.0 | 11.0 | 0.00 | 0.00 | 0.00 | 35 | |
| 20260510125005 | 71 | 250 | 3.0 | 11.0 | 0.00 | 0.00 | 0.00 | 36 | |
| 20260510124505 | 72 | 294 | 4.0 | 11.0 | 0.00 | 0.00 | 0.00 | 34 | |
| 20260510124005 | 72 | 319 | 2.0 | 8.0 | 0.00 | 0.00 | 0.00 | 36 | |
| 20260510123505 | 71 | 297 | 1.0 | 8.0 | 0.00 | 0.00 | 0.00 | 35 | |
| 20260510123005 | 71 | 257 | 2.0 | 8.0 | 0.00 | 0.00 | 0.00 | 35 | |
| 20260510122505 | 72 | 262 | 1.0 | 8.0 | 0.00 | 0.00 | 0.00 | 35 | |
| 20260510122005 | 71 | 292 | 2.0 | 8.0 | 0.00 | 0.00 | 0.00 | 36 | |
| 20260510121505 | 72 | 284 | 2.0 | 8.0 | 0.00 | 0.00 | 0.00 | 35 | |
| 20260510121005 | 72 | 269 | 1.0 | 5.0 | 0.00 | 0.00 | 0.00 | 37 | |
| 20260510120505 | 71 | 256 | 2.0 | 7.0 | 0.00 | 0.00 | 0.00 | 38 | |
| 20260510120005 | 71 | 250 | 2.0 | 7.0 | 0.00 | 0.00 | 0.00 | 38 | |
| 20260510115505 | 70 | 348 | 2.0 | 6.0 | 0.00 | 0.00 | 0.00 | 40 | |
| 20260510115005 | 69 | 334 | 2.0 | 6.0 | 0.00 | 0.00 | 0.00 | 40 | |
| 20260510114505 | 69 | 306 | 2.0 | 5.0 | 0.00 | 0.00 | 0.00 | 41 | |
| 20260510114005 | 69 | 317 | 2.0 | 5.0 | 0.00 | 0.00 | 0.00 | 41 | |
| 20260510113505 | 68 | 294 | 1.0 | 5.0 | 0.00 | 0.00 | 0.00 | 42 | |
| 20260510113005 | 68 | 294 | 1.0 | 7.0 | 0.00 | 0.00 | 0.00 | 41 | |
| 20260510112505 | 68 | 297 | 1.0 | 7.0 | 0.00 | 0.00 | 0.00 | 41 | |
| 20260510112005 | 68 | 294 | 2.0 | 7.0 | 0.00 | 0.00 | 0.00 | 40 | |
| 20260510111505 | 69 | 306 | 1.0 | 4.0 | 0.00 | 0.00 | 0.00 | 40 | |
| 20260510111005 | 69 | 319 | 1.0 | 4.0 | 0.00 | 0.00 | 0.00 | 39 | |
| 20260510110505 | 69 | 305 | 1.0 | 6.0 | 0.00 | 0.00 | 0.00 | 39 | |
| 20260510110005 | 69 | 280 | 1.0 | 6.0 | 0.00 | 0.00 | 0.00 | 39 | |
| 20260510105505 | 70 | 245 | 1.0 | 4.0 | 0.00 | 0.00 | 0.00 | 38 | |
| 20260510105005 | 70 | 234 | 0.0 | 4.0 | 0.00 | 0.00 | 0.00 | 38 | |
| 20260510104505 | 70 | 243 | 1.0 | 4.0 | 0.00 | 0.00 | 0.00 | 38 | |
| 20260510104005 | 70 | 223 | 2.0 | 4.0 | 0.00 | 0.00 | 0.00 | 39 | |
| 20260510103505 | 70 | 216 | 0.0 | 6.0 | 0.00 | 0.00 | 0.00 | 38 | |
| 20260510103005 | 69 | 240 | 0.0 | 6.0 | 0.00 | 0.00 | 0.00 | 40 | |
| 20260510102505 | 69 | 241 | 0.0 | 6.0 | 0.00 | 0.00 | 0.00 | 39 | |
| 20260510102005 | 69 | 270 | 1.0 | 4.0 | 0.00 | 0.00 | 0.00 | 39 | |
| 20260510101505 | 70 | 285 | 2.0 | 4.0 | 0.00 | 0.00 | 0.00 | 39 | |
| 20260510101005 | 69 | 259 | 2.0 | 3.0 | 0.00 | 0.00 | 0.00 | 40 | |
| 20260510100505 | 69 | 277 | 0.0 | 5.0 | 0.00 | 0.00 | 0.00 | 40 | |
| 20260510100005 | 69 | 284 | 0.0 | 5.0 | 0.00 | 0.00 | 0.00 | 40 | |
| 20260510095505 | 69 | 293 | 0.0 | 5.0 | 0.00 | 0.00 | 0.00 | 41 | |
| 20260510095005 | 68 | 281 | 2.0 | 5.0 | 0.00 | 0.00 | 0.00 | 40 | |
| 20260510094505 | 68 | 289 | 1.0 | 4.0 | 0.00 | 0.00 | 0.00 | 41 | |
| 20260510094005 | 68 | 295 | 1.0 | 6.0 | 0.00 | 0.00 | 0.00 | 41 | |
| 20260510093505 | 68 | 278 | 1.0 | 6.0 | 0.00 | 0.00 | 0.00 | 41 | |
| 20260510093005 | 68 | 275 | 2.0 | 5.0 | 0.00 | 0.00 | 0.00 | 41 | |
| 20260510092505 | 68 | 284 | 0.0 | 3.0 | 0.00 | 0.00 | 0.00 | 44 | |
| 20260510092005 | 68 | 279 | 2.0 | 4.0 | 0.00 | 0.00 | 0.00 | 44 | |
| 20260510091505 | 68 | 270 | 1.0 | 4.0 | 0.00 | 0.00 | 0.00 | 45 | |
| 20260510091005 | 68 | 264 | 0.0 | 4.0 | 0.00 | 0.00 | 0.00 | 45 | |
| 20260510090505 | 67 | 277 | 1.0 | 2.0 | 0.00 | 0.00 | 0.00 | 46 | |
| 20260510090005 | 67 | 282 | 1.0 | 4.0 | 0.00 | 0.00 | 0.00 | 46 | |
| 20260510085505 | 67 | 290 | 0.0 | 5.0 | 0.00 | 0.00 | 0.00 | 47 | |
| 20260510085005 | 66 | 288 | 0.0 | 5.0 | 0.00 | 0.00 | 0.00 | 47 | |
| 20260510084505 | 66 | 294 | 1.0 | 4.0 | 0.00 | 0.00 | 0.00 | 47 | |
| 20260510084005 | 66 | 267 | 1.0 | 4.0 | 0.00 | 0.00 | 0.00 | 47 | |
| 20260510083505 | 66 | 241 | 1.0 | 4.0 | 0.00 | 0.00 | 0.00 | 48 | |
| 20260510083005 | 66 | 267 | 1.0 | 3.0 | 0.00 | 0.00 | 0.00 | 48 | |
| 20260510082505 | 66 | 314 | 1.0 | 3.0 | 0.00 | 0.00 | 0.00 | 48 | |
| 20260510082005 | 66 | 277 | 2.0 | 4.0 | 0.00 | 0.00 | 0.00 | 48 | |
| 20260510081505 | 66 | 246 | 0.0 | 4.0 | 0.00 | 0.00 | 0.00 | 47 | |
| 20260510081005 | 66 | 196 | 2.0 | 3.0 | 0.00 | 0.00 | 0.00 | 47 | |
| 20260510080505 | 66 | 213 | 0.0 | 3.0 | 0.00 | 0.00 | 0.00 | 49 | |
| 20260510080005 | 66 | 245 | 0.0 | 4.0 | 0.00 | 0.00 | 0.00 | 49 | |
| 20260510075505 | 66 | 258 | 1.0 | 4.0 | 0.00 | 0.00 | 0.00 | 48 | |
| 20260510075005 | 66 | 292 | 0.0 | 3.0 | 0.00 | 0.00 | 0.00 | 47 | |
| 20260510074505 | 67 | 286 | 0.0 | 3.0 | 0.00 | 0.00 | 0.00 | 46 | |
| 20260510074005 | 67 | 254 | 1.0 | 3.0 | 0.00 | 0.00 | 0.00 | 44 | |
| 20260510073505 | 67 | 257 | 1.0 | 3.0 | 0.00 | 0.00 | 0.00 | 43 | |
| 20260510073005 | 67 | 305 | 0.0 | 3.0 | 0.00 | 0.00 | 0.00 | 43 | |
| 20260510072505 | 67 | 315 | 1.0 | 4.0 | 0.00 | 0.00 | 0.00 | 45 | |
| 20260510072005 | 66 | 276 | 0.0 | 4.0 | 0.00 | 0.00 | 0.00 | 45 | |
| 20260510071505 | 66 | 268 | 0.0 | 3.0 | 0.00 | 0.00 | 0.00 | 45 | |
| 20260510071005 | 66 | 297 | 0.0 | 3.0 | 0.00 | 0.00 | 0.00 | 45 | |
| 20260510070505 | 66 | 230 | 0.0 | 2.0 | 0.00 | 0.00 | 0.00 | 46 | |
| 20260510070005 | 66 | 280 | 0.0 | 2.0 | 0.00 | 0.00 | 0.00 | 46 | |
| 20260510065505 | 65 | 2 | 0.0 | 2.0 | 0.00 | 0.00 | 0.00 | 46 | |
| 20260510065005 | 65 | 8 | 0.0 | 2.0 | 0.00 | 0.00 | 0.00 | 48 | |
| 20260510064505 | 64 | 257 | 0.0 | 2.0 | 0.00 | 0.00 | 0.00 | 51 | |
| 20260510064005 | 64 | 270 | 0.0 | 2.0 | 0.00 | 0.00 | 0.00 | 51 | |
| 20260510063505 | 63 | 334 | 0.0 | 2.0 | 0.00 | 0.00 | 0.00 | 52 | |
| 20260510063005 | 63 | 337 | 0.0 | 2.0 | 0.00 | 0.00 | 0.00 | 53 | |
| 20260510062505 | 62 | 18 | 0.0 | 2.0 | 0.00 | 0.00 | 0.00 | 55 | |
| 20260510062005 | 62 | 10 | 0.0 | 2.0 | 0.00 | 0.00 | 0.00 | 55 | |
| 20260510061505 | 62 | 7 | 0.0 | 2.0 | 0.00 | 0.00 | 0.00 | 55 | |
| 20260510061005 | 61 | 45 | 0.0 | 2.0 | 0.00 | 0.00 | 0.00 | 55 | |
| 20260510060505 | 61 | 45 | 0.0 | 1.0 | 0.00 | 0.00 | 0.00 | 56 | |
| 20260510060005 | 61 | 19 | 0.0 | 1.0 | 0.00 | 0.00 | 0.00 | 56 | |
| 20260510055505 | 61 | 356 | 0.0 | 1.0 | 0.00 | 0.00 | 0.00 | 57 | |
| 20260510055005 | 61 | 292 | 0.0 | 1.0 | 0.00 | 0.00 | 0.00 | 59 | |
| 20260510054505 | 61 | 297 | 0.0 | 1.0 | 0.00 | 0.00 | 0.00 | 59 | |
| 20260510054005 | 60 | 247 | 0.0 | 1.0 | 0.00 | 0.00 | 0.00 | 60 | |
| 20260510053505 | 60 | 209 | 0.0 | 1.0 | 0.00 | 0.00 | 0.00 | 61 | |
| 20260510053005 | 60 | 27 | 0.0 | 1.0 | 0.00 | 0.00 | 0.00 | 61 | |
| 20260510052505 | 59 | 170 | 0.0 | 2.0 | 0.00 | 0.00 | 0.00 | 61 | |
| 20260510052005 | 59 | 171 | 0.0 | 2.0 | 0.00 | 0.00 | 0.00 | 62 | |
| 20260510051505 | 59 | 8 | 0.0 | 2.0 | 0.00 | 0.00 | 0.00 | 63 | |
| 20260510051005 | 58 | 360 | 0.0 | 2.0 | 0.00 | 0.00 | 0.00 | 64 | |
| 20260510050505 | 58 | 360 | 0.0 | 2.0 | 0.00 | 0.00 | 0.00 | 64 | |
| 20260510050005 | 58 | 360 | 0.0 | 2.0 | 0.00 | 0.00 | 0.00 | 64 | |
| 20260510045505 | 58 | 0 | 0.0 | 0.0 | 0.00 | 0.00 | 0.00 | 64 | |
| 20260510045005 | 57 | 360 | 0.0 | 2.0 | 0.00 | 0.00 | 0.00 | 64 | |
| 20260510044505 | 57 | 360 | 0.0 | 2.0 | 0.00 | 0.00 | 0.00 | 63 | |
| 20260510044005 | 57 | 360 | 0.0 | 2.0 | 0.00 | 0.00 | 0.00 | 63 | |
| 20260510043505 | 58 | 360 | 0.0 | 2.0 | 0.00 | 0.00 | 0.00 | 63 | |
| 20260510043005 | 58 | 360 | 0.0 | 1.0 | 0.00 | 0.00 | 0.00 | 62 | |
| 20260510042504 | 58 | 360 | 0.0 | 1.0 | 0.00 | 0.00 | 0.00 | 62 | |
| 20260510042005 | 58 | 96 | 0.0 | 2.0 | 0.00 | 0.00 | 0.00 | 62 | |
| 20260510041505 | 58 | 84 | 0.0 | 2.0 | 0.00 | 0.00 | 0.00 | 61 | |
| 20260510041005 | 58 | 0 | 0.0 | 1.0 | 0.00 | 0.00 | 0.00 | 61 | |
| 20260510040504 | 58 | 0 | 0.0 | 0.0 | 0.00 | 0.00 | 0.00 | 59 | |
| 20260510040005 | 58 | 0 | 0.0 | 0.0 | 0.00 | 0.00 | 0.00 | 59 | |
| 20260510035504 | 58 | 0 | 0.0 | 0.0 | 0.00 | 0.00 | 0.00 | 59 | |
| 20260510035004 | 58 | 360 | 0.0 | 2.0 | 0.00 | 0.00 | 0.00 | 59 | |
| 20260510034504 | 58 | 360 | 0.0 | 2.0 | 0.00 | 0.00 | 0.00 | 59 | |
| 20260510034004 | 59 | 53 | 0.0 | 1.0 | 0.00 | 0.00 | 0.00 | 59 | |
| 20260510033504 | 59 | 152 | 0.0 | 2.0 | 0.00 | 0.00 | 0.00 | 58 | |
| 20260510033005 | 59 | 112 | 0.0 | 3.0 | 0.00 | 0.00 | 0.00 | 59 | |
| 20260510032504 | 59 | 108 | 0.0 | 3.0 | 0.00 | 0.00 | 0.00 | 59 | |
| 20260510032004 | 59 | 137 | 1.0 | 3.0 | 0.00 | 0.00 | 0.00 | 59 | |
| 20260510031504 | 59 | 213 | 0.0 | 2.0 | 0.00 | 0.00 | 0.00 | 59 | |
| 20260510031004 | 59 | 225 | 0.0 | 2.0 | 0.00 | 0.00 | 0.00 | 59 | |
| 20260510030504 | 59 | 0 | 0.0 | 0.0 | 0.00 | 0.00 | 0.00 | 59 | |
| 20260510030005 | 59 | 0 | 0.0 | 0.0 | 0.00 | 0.00 | 0.00 | 59 | |
| 20260510025504 | 59 | 280 | 0.0 | 1.0 | 0.00 | 0.00 | 0.00 | 59 | |
| 20260510025005 | 59 | 163 | 0.0 | 2.0 | 0.00 | 0.00 | 0.00 | 59 | |
| 20260510024504 | 59 | 152 | 0.0 | 2.0 | 0.00 | 0.00 | 0.00 | 59 | |
| 20260510024004 | 59 | 34 | 0.0 | 1.0 | 0.00 | 0.00 | 0.00 | 59 | |
| 20260510023504 | 59 | 360 | 0.0 | 2.0 | 0.00 | 0.00 | 0.00 | 59 | |
| 20260510023004 | 59 | 180 | 0.0 | 2.0 | 0.00 | 0.00 | 0.00 | 60 | |
| 20260510022505 | 59 | 0 | 0.0 | 0.0 | 0.00 | 0.00 | 0.00 | 59 | |
| 20260510022004 | 59 | 0 | 0.0 | 0.0 | 0.00 | 0.00 | 0.00 | 58 | |
| 20260510021505 | 59 | 0 | 0.0 | 2.0 | 0.00 | 0.00 | 0.00 | 58 | |
| 20260510021004 | 59 | 360 | 0.0 | 2.0 | 0.00 | 0.00 | 0.00 | 58 | |
| 20260510020504 | 59 | 360 | 0.0 | 2.0 | 0.00 | 0.00 | 0.00 | 58 | |
| 20260510020005 | 59 | 357 | 0.0 | 2.0 | 0.00 | 0.00 | 0.00 | 58 | |
| 20260510015504 | 59 | 348 | 0.0 | 2.0 | 0.00 | 0.00 | 0.00 | 57 | |
| 20260510015004 | 59 | 180 | 0.0 | 1.0 | 0.00 | 0.00 | 0.00 | 57 | |
| 20260510014504 | 59 | 360 | 0.0 | 1.0 | 0.00 | 0.00 | 0.00 | 57 | |
| 20260510014004 | 59 | 29 | 0.0 | 2.0 | 0.00 | 0.00 | 0.00 | 57 | |
| 20260510013504 | 59 | 29 | 0.0 | 2.0 | 0.00 | 0.00 | 0.00 | 56 | |
| 20260510013004 | 59 | 261 | 1.0 | 2.0 | 0.00 | 0.00 | 0.00 | 56 | |
| 20260510012505 | 59 | 360 | 1.0 | 2.0 | 0.00 | 0.00 | 0.00 | 56 | |
| 20260510012004 | 59 | 360 | 0.0 | 1.0 | 0.00 | 0.00 | 0.00 | 57 | |
| 20260510011504 | 59 | 202 | 0.0 | 1.0 | 0.00 | 0.00 | 0.00 | 57 | |
| 20260510011004 | 59 | 202 | 0.0 | 1.0 | 0.00 | 0.00 | 0.00 | 57 | |
| 20260510010504 | 59 | 202 | 0.0 | 2.0 | 0.00 | 0.00 | 0.00 | 56 | |
| 20260510010005 | 59 | 202 | 0.0 | 2.0 | 0.00 | 0.00 | 0.00 | 56 | |
| 20260510005504 | 59 | 202 | 0.0 | 2.0 | 0.00 | 0.00 | 0.00 | 56 | |
| 20260510005004 | 59 | 0 | 0.0 | 0.0 | 0.00 | 0.00 | 0.00 | 56 | |
| 20260510004504 | 59 | 225 | 0.0 | 1.0 | 0.00 | 0.00 | 0.00 | 56 | |
| 20260510004004 | 59 | 195 | 0.0 | 2.0 | 0.00 | 0.00 | 0.00 | 55 | |
| 20260510003504 | 59 | 197 | 0.0 | 2.0 | 0.00 | 0.00 | 0.00 | 55 | |
| 20260510003005 | 59 | 197 | 0.0 | 2.0 | 0.00 | 0.00 | 0.00 | 55 | |
| 20260510002504 | 59 | 190 | 0.0 | 2.0 | 0.00 | 0.00 | 0.00 | 55 | |
| 20260510002004 | 59 | 0 | 0.0 | 0.0 | 0.00 | 0.00 | 0.00 | 53 | |
| 20260510001504 | 59 | 0 | 0.0 | 0.0 | 0.00 | 0.00 | 0.00 | 53 | |
| 20260510001004 | 60 | 0 | 0.0 | 0.0 | 0.00 | 0.00 | 0.00 | 53 | |
| 20260510000504 | 60 | 162 | 0.0 | 1.0 | 0.00 | 0.00 | 0.00 | 52 | |
| 20260510000004 | 60 | 162 | 0.0 | 1.0 | 0.00 | 0.00 | 0.00 | 52 | |
| 20260509235504 | 60 | 189 | 0.0 | 2.0 | 0.00 | 0.00 | 0.00 | 51 | |
| 20260509235004 | 60 | 199 | 0.0 | 2.0 | 0.00 | 0.00 | 0.00 | 51 | |
| 20260509234504 | 60 | 202 | 0.0 | 2.0 | 0.00 | 0.00 | 0.00 | 51 | |
| 20260509234004 | 60 | 0 | 0.0 | 0.0 | 0.00 | 0.00 | 0.00 | 50 | |
| 20260509233504 | 60 | 0 | 0.0 | 0.0 | 0.00 | 0.00 | 0.00 | 49 | |
| 20260509233004 | 61 | 0 | 0.0 | 0.0 | 0.00 | 0.00 | 0.00 | 48 | |
| 20260509232504 | 61 | 197 | 0.0 | 2.0 | 0.00 | 0.00 | 0.00 | 48 | |
| 20260509232004 | 61 | 202 | 0.0 | 2.0 | 0.00 | 0.00 | 0.00 | 48 | |
| 20260509231504 | 61 | 200 | 0.0 | 2.0 | 0.00 | 0.00 | 0.00 | 47 | |
| 20260509231004 | 62 | 200 | 0.0 | 2.0 | 0.00 | 0.00 | 0.00 | 46 | |
| 20260509230504 | 63 | 201 | 1.0 | 2.0 | 0.00 | 0.00 | 0.00 | 45 | |
| 20260509230004 | 63 | 199 | 1.0 | 2.0 | 0.00 | 0.00 | 0.00 | 45 | |
| 20260509225504 | 63 | 0 | 0.0 | 0.0 | 0.00 | 0.00 | 0.00 | 43 | |
| 20260509225004 | 63 | 0 | 0.0 | 0.0 | 0.00 | 0.00 | 0.00 | 42 | |
| 20260509224504 | 64 | 0 | 0.0 | 0.0 | 0.00 | 0.00 | 0.00 | 43 | |
| 20260509224005 | 64 | 0 | 0.0 | 0.0 | 0.00 | 0.00 | 0.00 | 42 | |
| 20260509223504 | 64 | 0 | 0.0 | 0.0 | 0.00 | 0.00 | 0.00 | 42 | |
| 20260509223004 | 64 | 0 | 0.0 | 0.0 | 0.00 | 0.00 | 0.00 | 41 | |
| 20260509222504 | 64 | 0 | 0.0 | 0.0 | 0.00 | 0.00 | 0.00 | 41 | |
| 20260509222004 | 64 | 0 | 0.0 | 0.0 | 0.00 | 0.00 | 0.00 | 41 | |
| 20260509221504 | 64 | 0 | 0.0 | 0.0 | 0.00 | 0.00 | 0.00 | 41 | |
| 20260509221004 | 64 | 0 | 0.0 | 0.0 | 0.00 | 0.00 | 0.00 | 41 | |
| 20260509220504 | 64 | 270 | 0.0 | 1.0 | 0.00 | 0.00 | 0.00 | 41 | |
| 20260509220005 | 64 | 247 | 0.0 | 1.0 | 0.00 | 0.00 | 0.00 | 41 | |
| 20260509215504 | 64 | 236 | 0.0 | 1.0 | 0.00 | 0.00 | 0.00 | 41 | |
| 20260509215004 | 64 | 146 | 0.0 | 1.0 | 0.00 | 0.00 | 0.00 | 41 | |
| 20260509214504 | 64 | 183 | 0.0 | 1.0 | 0.00 | 0.00 | 0.00 | 40 | |
| 20260509214004 | 64 | 202 | 0.0 | 1.0 | 0.00 | 0.00 | 0.00 | 40 | |
| 20260509213504 | 64 | 202 | 0.0 | 1.0 | 0.00 | 0.00 | 0.00 | 40 | |
| 20260509213005 | 64 | 225 | 0.0 | 1.0 | 0.00 | 0.00 | 0.00 | 40 | |
| 20260509212504 | 64 | 225 | 0.0 | 1.0 | 0.00 | 0.00 | 0.00 | 40 | |
| 20260509212004 | 64 | 254 | 0.0 | 1.0 | 0.00 | 0.00 | 0.00 | 38 | |
| 20260509211504 | 64 | 253 | 0.0 | 1.0 | 0.00 | 0.00 | 0.00 | 38 | |
| 20260509211004 | 65 | 260 | 0.0 | 1.0 | 0.00 | 0.00 | 0.00 | 38 | |
| 20260509210504 | 65 | 270 | 0.0 | 1.0 | 0.00 | 0.00 | 0.00 | 37 | |
| 20260509210004 | 65 | 270 | 0.0 | 1.0 | 0.00 | 0.00 | 0.00 | 37 | |
| 20260509205504 | 65 | 225 | 0.0 | 1.0 | 0.00 | 0.00 | 0.00 | 37 | |
| 20260509205005 | 65 | 261 | 0.0 | 1.0 | 0.00 | 0.00 | 0.00 | 36 | |
| 20260509204504 | 65 | 257 | 0.0 | 2.0 | 0.00 | 0.00 | 0.00 | 36 | |
| 20260509204004 | 66 | 264 | 0.0 | 2.0 | 0.00 | 0.00 | 0.00 | 35 | |
| 20260509203504 | 66 | 268 | 0.0 | 2.0 | 0.00 | 0.00 | 0.00 | 35 | |
| 20260509203004 | 66 | 267 | 0.0 | 2.0 | 0.00 | 0.00 | 0.00 | 34 | |
| 20260509202504 | 67 | 270 | 0.0 | 1.0 | 0.00 | 0.00 | 0.00 | 33 | |
| 20260509202004 | 67 | 0 | 0.0 | 0.0 | 0.00 | 0.00 | 0.00 | 31 | |
| 20260509201504 | 67 | 0 | 0.0 | 0.0 | 0.00 | 0.00 | 0.00 | 31 | |
| 20260509201004 | 68 | 0 | 0.0 | 0.0 | 0.00 | 0.00 | 0.00 | 30 | |
| 20260509200504 | 68 | 0 | 0.0 | 0.0 | 0.00 | 0.00 | 0.00 | 29 | |
| 20260509200004 | 68 | 270 | 0.0 | 1.0 | 0.00 | 0.00 | 0.00 | 29 | |
| 20260509195504 | 68 | 270 | 0.0 | 1.0 | 0.00 | 0.00 | 0.00 | 29 | |
| 20260509195004 | 68 | 270 | 0.0 | 2.0 | 0.00 | 0.00 | 0.00 | 28 | |
| 20260509194504 | 69 | 278 | 0.0 | 2.0 | 0.00 | 0.00 | 0.00 | 28 | |
| 20260509194004 | 69 | 276 | 0.0 | 2.0 | 0.00 | 0.00 | 0.00 | 27 | |
| 20260509193504 | 69 | 261 | 0.0 | 2.0 | 0.00 | 0.00 | 0.00 | 26 | |
| 20260509193004 | 70 | 234 | 0.0 | 2.0 | 0.00 | 0.00 | 0.00 | 25 | |
| 20260509192504 | 70 | 243 | 0.0 | 2.0 | 0.00 | 0.00 | 0.00 | 25 | |
| 20260509192004 | 70 | 231 | 0.0 | 2.0 | 0.00 | 0.00 | 0.00 | 25 | |
| 20260509191504 | 70 | 217 | 0.0 | 2.0 | 0.00 | 0.00 | 0.00 | 24 | |
| 20260509191004 | 71 | 247 | 0.0 | 1.0 | 0.00 | 0.00 | 0.00 | 23 | |
| 20260509190504 | 71 | 257 | 0.0 | 1.0 | 0.00 | 0.00 | 0.00 | 22 | |
| 20260509190004 | 71 | 229 | 0.0 | 2.0 | 0.00 | 0.00 | 0.00 | 22 | |
| 20260509185504 | 72 | 248 | 0.0 | 3.0 | 0.00 | 0.00 | 0.00 | 21 | |
| 20260509185004 | 72 | 285 | 0.0 | 3.0 | 0.00 | 0.00 | 0.00 | 20 | |
| 20260509184504 | 72 | 278 | 1.0 | 3.0 | 0.00 | 0.00 | 0.00 | 20 | |
| 20260509184004 | 73 | 256 | 0.0 | 2.0 | 0.00 | 0.00 | 0.00 | 19 | |
| 20260509183504 | 74 | 245 | 0.0 | 2.0 | 0.00 | 0.00 | 0.00 | 18 | |
| 20260509183004 | 74 | 225 | 0.0 | 3.0 | 0.00 | 0.00 | 0.00 | 17 | |
| 20260509182504 | 75 | 200 | 0.0 | 3.0 | 0.00 | 0.00 | 0.00 | 16 | |
| 20260509182004 | 76 | 188 | 0.0 | 3.0 | 0.00 | 0.00 | 0.00 | 15 | |
| 20260509181504 | 77 | 252 | 0.0 | 4.0 | 0.00 | 0.00 | 0.00 | 14 | |
| 20260509181004 | 78 | 245 | 0.0 | 4.0 | 0.00 | 0.00 | 0.00 | 13 | |
| 20260509180504 | 78 | 207 | 0.0 | 2.0 | 0.00 | 0.00 | 0.00 | 13 | |
| 20260509180004 | 78 | 195 | 0.0 | 3.0 | 0.00 | 0.00 | 0.00 | 13 | |
| 20260509175504 | 79 | 203 | 0.0 | 3.0 | 0.00 | 0.00 | 0.00 | 12 | |
| 20260509175004 | 79 | 239 | 1.0 | 3.0 | 0.00 | 0.00 | 0.00 | 11 | |
| 20260509174504 | 80 | 237 | 1.0 | 3.0 | 0.00 | 0.00 | 0.00 | 11 | |
| 20260509174004 | 80 | 245 | 0.0 | 4.0 | 0.00 | 0.00 | 0.00 | 11 | |
| 20260509173504 | 80 | 271 | 1.0 | 4.0 | 0.00 | 0.00 | 0.00 | 11 | |
| 20260509173004 | 80 | 228 | 0.0 | 3.0 | 0.00 | 0.00 | 0.00 | 12 | |
| 20260509172504 | 79 | 180 | 0.0 | 4.0 | 0.00 | 0.00 | 0.00 | 12 | |
| 20260509172004 | 79 | 205 | 1.0 | 4.0 | 0.00 | 0.00 | 0.00 | 12 | |
| 20260509171504 | 79 | 65 | 1.0 | 3.0 | 0.00 | 0.00 | 0.00 | 11 | |
| 20260509171004 | 80 | 49 | 0.0 | 3.0 | 0.00 | 0.00 | 0.00 | 10 | |
| 20260509170504 | 80 | 34 | 1.0 | 3.0 | 0.00 | 0.00 | 0.00 | 10 | |
| 20260509170004 | 80 | 335 | 1.0 | 3.0 | 0.00 | 0.00 | 0.00 | 10 | |
| 20260509165504 | 81 | 313 | 1.0 | 4.0 | 0.00 | 0.00 | 0.00 | 10 | |
| 20260509165004 | 81 | 284 | 0.0 | 4.0 | 0.00 | 0.00 | 0.00 | 10 | |
| 20260509164504 | 81 | 274 | 0.0 | 2.0 | 0.00 | 0.00 | 0.00 | 10 | |
| 20260509164004 | 81 | 276 | 0.0 | 2.0 | 0.00 | 0.00 | 0.00 | 10 | |
| 20260509163504 | 81 | 286 | 0.0 | 2.0 | 0.00 | 0.00 | 0.00 | 10 | |
| 20260509163004 | 82 | 289 | 0.0 | 2.0 | 0.00 | 0.00 | 0.00 | 10 | |
| 20260509162504 | 83 | 254 | 0.0 | 3.0 | 0.00 | 0.00 | 0.00 | 10 | |
| 20260509162004 | 83 | 259 | 0.0 | 3.0 | 0.00 | 0.00 | 0.00 | 10 | |
| 20260509161504 | 83 | 276 | 1.0 | 2.0 | 0.00 | 0.00 | 0.00 | 10 | |
| 20260509161004 | 84 | 244 | 1.0 | 2.0 | 0.00 | 0.00 | 0.00 | 10 | |
| 20260509160504 | 84 | 243 | 0.0 | 3.0 | 0.00 | 0.00 | 0.00 | 10 | |
| 20260509160004 | 84 | 243 | 0.0 | 3.0 | 0.00 | 0.00 | 0.00 | 10 | |
| 20260509155504 | 84 | 264 | 1.0 | 4.0 | 0.00 | 0.00 | 0.00 | 10 | |
| 20260509155004 | 84 | 251 | 0.0 | 4.0 | 0.00 | 0.00 | 0.00 | 10 |